CW6261 Weather Reports


Display with metric or nautical units.
time (UTC)temp
F
wind
direction
speed
MPH
gust
MPH
rain 1hr
in
rain 24hr
in
rain mn
in
humidity
%
barometer
mb
20260831082202 79 237 4.0 4.0 0.00 0.00 0.00 80 101.4
20260831081702 79 238 4.0 6.0 0.00 0.00 0.00 79 101.4
20260831081202 79 210 2.0 6.0 0.00 0.00 0.00 79 101.4
20260831080702 79 266 2.0 3.0 0.00 0.00 0.00 79 101.4
20260831080202 79 221 1.0 2.0 0.00 0.00 0.00 79 101.4
20260831075702 79 211 1.0 5.0 0.00 0.00 0.00 78 101.4
20260831074702 79 204 2.0 6.0 0.00 0.00 0.00 77 101.4
20260831073202 80 223 2.0 4.0 0.00 0.00 0.00 76 101.4
20260831072702 80 237 2.0 8.0 0.00 0.00 0.00 75 101.4
20260831072203 80 230 3.0 6.0 0.00 0.00 0.00 75 101.4
20260831071702 80 234 2.0 7.0 0.00 0.00 0.00 74 101.4
20260831071203 81 245 2.0 5.0 0.00 0.00 0.00 74 101.4
20260831070702 81 194 5.0 6.0 0.00 0.00 0.00 73 101.4
20260831070202 81 157 3.0 11.0 0.00 0.00 0.00 73 101.4
20260831065702 81 217 3.0 9.0 0.00 0.00 0.00 72 101.4
20260831064702 81 227 2.0 8.0 0.00 0.00 0.00 71 101.4
20260831064202 81 208 4.0 7.0 0.00 0.00 0.00 71 101.4
20260831063702 81 237 3.0 7.0 0.00 0.00 0.00 71 101.4
20260831062202 81 208 3.0 5.0 0.00 0.00 0.00 71 101.4
20260831061702 82 196 4.0 4.0 0.00 0.00 0.00 71 101.4
20260831061202 82 204 1.0 3.0 0.00 0.00 0.00 71 101.4
20260831060702 82 212 2.0 3.0 0.00 0.00 0.00 70 101.4
20260831055702 82 188 2.0 5.0 0.00 0.00 0.00 69 101.4
20260831055201 82 187 7.0 7.0 0.00 0.00 0.00 68 101.4
20260831054702 83 199 4.0 5.0 0.00 0.00 0.00 68 101.4
20260831054202 83 225 3.0 5.0 0.00 0.00 0.00 67 101.4
20260831053702 83 229 2.0 6.0 0.00 0.00 0.00 66 101.4
20260831053202 83 180 1.0 6.0 0.00 0.00 0.00 66 101.4
20260831052202 83 185 4.0 8.0 0.00 0.00 0.00 64 101.4
20260831050702 84 199 2.0 4.0 0.00 0.00 0.00 63 101.4
20260831050201 84 227 4.0 9.0 0.00 0.00 0.00 62 101.3
20260831045704 84 247 2.0 4.0 0.00 0.00 0.00 62 101.3
20260831044202 85 173 4.0 10.0 0.00 0.00 0.00 60 101.3
20260831043202 85 204 2.0 8.0 0.00 0.00 0.00 59 101.3
20260831042702 85 206 3.0 9.0 0.00 0.00 0.00 59 101.4
20260831041702 86 163 7.0 10.0 0.00 0.00 0.00 58 101.4
20260831041203 86 200 3.0 9.0 0.00 0.00 0.00 58 101.4
20260831040702 86 193 7.0 7.0 0.00 0.00 0.00 58 101.4
20260831040201 86 184 8.0 10.0 0.00 0.00 0.00 58 101.3
20260831035704 86 188 1.0 8.0 0.00 0.00 0.00 58 101.3
20260831035202 86 240 2.0 9.0 0.00 0.00 0.00 58 101.3
20260831034702 86 206 5.0 9.0 0.00 0.00 0.00 58 101.3
20260831034201 86 182 6.0 11.0 0.00 0.00 0.00 58 101.3
20260831033702 86 184 1.0 8.0 0.00 0.00 0.00 57 101.3
20260831033202 86 211 2.0 7.0 0.00 0.00 0.00 57 101.3
20260831032702 87 188 6.0 9.0 0.00 0.00 0.00 57 101.3
20260831032202 87 154 1.0 15.0 0.00 0.00 0.00 57 101.3
20260831031702 87 184 3.0 7.0 0.00 0.00 0.00 57 101.3
20260831031202 87 172 2.0 8.0 0.00 0.00 0.00 57 101.3
20260831030702 87 199 3.0 7.0 0.00 0.00 0.00 57 101.3
20260831030203 87 173 3.0 9.0 0.00 0.00 0.00 57 101.2
20260831025702 87 199 3.0 8.0 0.00 0.00 0.00 56 101.2
20260831024702 87 216 8.0 10.0 0.00 0.00 0.00 56 101.2
20260831024202 88 178 3.0 5.0 0.00 0.00 0.00 56 101.2
20260831023702 88 140 2.0 6.0 0.00 0.00 0.00 55 101.2
20260831023202 88 203 3.0 8.0 0.00 0.00 0.00 55 101.2
20260831022701 88 199 4.0 5.0 0.00 0.00 0.00 52 101.2
20260831022202 89 233 1.0 8.0 0.00 0.00 0.00 52 101.2
20260831021702 89 147 2.0 12.0 0.00 0.00 0.00 51 101.2
20260831021202 89 217 4.0 6.0 0.00 0.00 0.00 49 101.2
20260831020702 89 170 3.0 11.0 0.00 0.00 0.00 48 101.2
20260831020202 89 199 2.0 2.0 0.00 0.00 0.00 46 101.2
20260831015702 89 135 0.0 1.0 0.00 0.00 0.00 45 101.2
20260831015201 89 208 0.0 1.0 0.00 0.00 0.00 45 101.2
20260831014702 89 195 0.0 1.0 0.00 0.00 0.00 45 101.1
20260831014202 89 249 0.0 3.0 0.00 0.00 0.00 44 101.1
20260831013702 90 224 0.0 1.0 0.00 0.00 0.00 44 101.1
20260831013202 90 142 0.0 1.0 0.00 0.00 0.00 44 101.1
20260831012702 90 212 0.0 1.0 0.00 0.00 0.00 44 101.1
20260831012202 90 230 0.0 1.0 0.00 0.00 0.00 43 101.1
20260831011702 90 225 0.0 1.0 0.00 0.00 0.00 43 101.1
20260831010702 91 236 0.0 1.0 0.00 0.00 0.00 43 101.1
20260831005702 91 224 0.0 1.0 0.00 0.00 0.00 42 101.1
20260831005202 92 225 0.0 1.0 0.00 0.00 0.00 41 101.1
20260831004703 92 325 0.0 4.0 0.00 0.00 0.00 41 101.1
20260831003702 92 130 1.0 4.0 0.00 0.00 0.00 41 101.1
20260831003202 92 164 0.0 3.0 0.00 0.00 0.00 40 101.1
20260831002702 92 249 0.0 2.0 0.00 0.00 0.00 41 101.1
20260831002203 92 269 0.0 1.0 0.00 0.00 0.00 41 101.1
20260831001702 92 246 0.0 1.0 0.00 0.00 0.00 40 101.1
20260831001202 93 195 0.0 1.0 0.00 0.00 0.00 41 101.1
20260831000702 93 220 0.0 5.0 0.00 0.00 0.00 41 101.1
20260830235701 92 217 0.0 1.0 0.00 0.00 0.00 41 101.0
20260830235202 93 237 0.0 1.0 0.00 0.00 0.00 41 101.0
20260830234702 93 299 0.0 1.0 0.00 0.00 0.00 41 101.0
20260830234202 93 224 0.0 1.0 0.00 0.00 0.00 41 101.0
20260830233702 93 214 1.0 3.0 0.00 0.00 0.00 40 101.0
20260830233202 93 194 2.0 4.0 0.00 0.00 0.00 40 101.1
20260830232702 94 250 1.0 5.0 0.00 0.00 0.00 40 101.1
20260830231202 95 129 0.0 1.0 0.00 0.00 0.00 38 101.1
20260830230703 96 214 1.0 4.0 0.00 0.00 0.00 38 101.1
20260830230202 96 308 0.0 2.0 0.00 0.00 0.00 38 101.0
20260830225703 96 187 1.0 4.0 0.00 0.00 0.00 37 101.0
20260830225202 95 89 0.0 2.0 0.00 0.00 0.00 37 101.0
20260830224702 94 158 1.0 1.0 0.00 0.00 0.00 37 101.0
20260830223702 96 205 0.0 2.0 0.00 0.00 0.00 35 101.0
20260830223202 96 193 0.0 2.0 0.00 0.00 0.00 36 101.2
20260830222702 97 215 3.0 6.0 0.00 0.00 0.00 36 101.2
20260830222201 97 218 1.0 3.0 0.00 0.00 0.00 36 101.2
20260830221702 96 254 0.0 3.0 0.00 0.00 0.00 37 101.2
20260830221202 96 215 3.0 3.0 0.00 0.00 0.00 36 101.2
20260830220701 96 251 4.0 5.0 0.00 0.00 0.00 37 101.2
20260830220202 95 7 1.0 5.0 0.00 0.00 0.00 37 101.1
20260830215703 96 184 5.0 6.0 0.00 0.00 0.00 37 101.1
20260830214702 95 222 2.0 6.0 0.00 0.00 0.00 38 101.1
20260830214202 95 209 4.0 8.0 0.00 0.00 0.00 38 101.1
20260830213702 94 203 6.0 9.0 0.00 0.00 0.00 39 101.1
20260830213202 95 181 4.0 8.0 0.00 0.00 0.00 39 101.2
20260830212702 93 251 1.0 4.0 0.00 0.00 0.00 40 101.2
20260830211702 94 215 1.0 6.0 0.00 0.00 0.00 41 101.3
20260830211202 92 194 4.0 5.0 0.00 0.00 0.00 42 101.3
20260830210702 92 39 1.0 6.0 0.00 0.00 0.00 42 101.3
20260830210202 93 181 0.0 7.0 0.00 0.00 0.00 43 101.2
20260830205701 94 188 2.0 7.0 0.00 0.00 0.00 42 101.2
20260830205202 95 209 4.0 6.0 0.00 0.00 0.00 41 101.2
20260830204702 95 224 2.0 6.0 0.00 0.00 0.00 40 101.2
20260830203702 93 148 1.0 7.0 0.00 0.00 0.00 42 101.2
20260830203203 94 180 3.0 5.0 0.00 0.00 0.00 41 101.3
20260830202702 94 183 1.0 8.0 0.00 0.00 0.00 42 101.3
20260830202202 93 302 1.0 7.0 0.00 0.00 0.00 43 101.3
20260830201702 94 217 1.0 7.0 0.00 0.00 0.00 41 101.3
20260830201202 94 167 1.0 6.0 0.00 0.00 0.00 42 101.3
20260830200702 94 249 1.0 8.0 0.00 0.00 0.00 41 101.3
20260830200202 93 238 3.0 6.0 0.00 0.00 0.00 43 101.3
20260830195702 94 198 5.0 9.0 0.00 0.00 0.00 42 101.3
20260830195202 94 181 6.0 13.0 0.00 0.00 0.00 42 101.3
20260830194702 94 249 5.0 6.0 0.00 0.00 0.00 43 101.3
20260830194202 92 196 6.0 9.0 0.00 0.00 0.00 44 101.3
20260830193702 92 173 1.0 8.0 0.00 0.00 0.00 44 101.3
20260830193202 93 198 5.0 10.0 0.00 0.00 0.00 43 101.4
20260830192702 93 239 1.0 4.0 0.00 0.00 0.00 45 101.4
20260830192202 93 248 3.0 8.0 0.00 0.00 0.00 46 101.4
20260830190702 92 196 1.0 9.0 0.00 0.00 0.00 46 101.5
20260830190202 92 180 4.0 5.0 0.00 0.00 0.00 45 101.4
20260830185702 93 224 3.0 8.0 0.00 0.00 0.00 45 101.4
20260830185202 93 240 2.0 5.0 0.00 0.00 0.00 45 101.4
20260830184702 92 282 2.0 5.0 0.00 0.00 0.00 45 101.4
20260830184202 92 156 3.0 7.0 0.00 0.00 0.00 45 101.4
20260830183702 92 221 5.0 7.0 0.00 0.00 0.00 46 101.4
20260830183202 91 217 1.0 14.0 0.00 0.00 0.00 47 101.5
20260830182702 91 225 3.0 6.0 0.00 0.00 0.00 48 101.5
20260830182202 91 227 3.0 8.0 0.00 0.00 0.00 47 101.5
20260830181702 91 173 0.0 10.0 0.00 0.00 0.00 47 101.5
20260830181202 91 39 2.0 4.0 0.00 0.00 0.00 48 101.5
20260830180702 91 162 1.0 5.0 0.00 0.00 0.00 49 101.5
20260830175702 91 214 4.0 5.0 0.00 0.00 0.00 50 101.5
20260830174701 89 203 8.0 10.0 0.00 0.00 0.00 52 101.5
20260830174202 90 221 5.0 8.0 0.00 0.00 0.00 51 101.5
20260830173702 89 122 0.0 6.0 0.00 0.00 0.00 52 101.5
20260830173202 90 267 4.0 11.0 0.00 0.00 0.00 52 101.6
20260830172701 89 180 4.0 6.0 0.00 0.00 0.00 53 101.6
20260830171702 90 257 4.0 4.0 0.00 0.00 0.00 54 101.6
20260830171202 89 155 2.0 8.0 0.00 0.00 0.00 55 101.6
20260830170202 88 253 2.0 8.0 0.00 0.00 0.00 55 101.6
20260830165702 87 244 3.0 5.0 0.00 0.00 0.00 57 101.6
20260830165202 88 207 5.0 8.0 0.00 0.00 0.00 57 101.6
20260830164203 86 223 3.0 4.0 0.00 0.00 0.00 58 101.6
20260830163702 87 155 2.0 11.0 0.00 0.00 0.00 58 101.6
20260830163203 87 159 2.0 7.0 0.00 0.00 0.00 58 101.6
20260830162702 87 208 4.0 6.0 0.00 0.00 0.00 57 101.6
20260830162202 86 259 4.0 6.0 0.00 0.00 0.00 58 101.6
20260830161702 86 203 4.0 5.0 0.00 0.00 0.00 60 101.6
20260830161203 86 212 3.0 6.0 0.00 0.00 0.00 60 101.6
20260830160702 86 185 6.0 9.0 0.00 0.00 0.00 58 101.6
20260830160202 86 207 2.0 8.0 0.00 0.00 0.00 61 101.6
20260830155702 85 240 2.0 8.0 0.00 0.00 0.00 62 101.6
20260830155202 85 198 7.0 10.0 0.00 0.00 0.00 62 101.6
20260830154702 84 210 1.0 4.0 0.00 0.00 0.00 65 101.6
20260830154202 84 206 3.0 7.0 0.00 0.00 0.00 65 101.6
20260830153702 84 204 4.0 9.0 0.00 0.00 0.00 64 101.6
20260830153202 83 215 4.0 7.0 0.00 0.00 0.00 67 101.6
20260830152702 83 203 3.0 7.0 0.00 0.00 0.00 68 101.6
20260830152202 83 221 4.0 7.0 0.00 0.00 0.00 68 101.6
20260830151702 82 237 4.0 5.0 0.00 0.00 0.00 68 101.6
20260830151202 82 249 2.0 10.0 0.00 0.00 0.00 69 101.6
20260830150702 82 192 5.0 9.0 0.00 0.00 0.00 69 101.6
20260830150203 82 204 3.0 9.0 0.00 0.00 0.00 71 101.6
20260830145702 82 264 4.0 8.0 0.00 0.00 0.00 71 101.6
20260830145202 81 137 2.0 6.0 0.00 0.00 0.00 72 101.6
20260830144702 81 265 3.0 6.0 0.00 0.00 0.00 73 101.6
20260830142702 80 227 1.0 5.0 0.00 0.00 0.00 77 101.6
20260830142202 80 223 1.0 6.0 0.00 0.00 0.00 78 101.6
20260830141702 79 228 1.0 6.0 0.00 0.00 0.00 79 101.6
20260830141202 79 197 6.0 8.0 0.00 0.00 0.00 79 101.6
20260830140702 79 195 2.0 5.0 0.00 0.00 0.00 80 101.6
20260830140202 79 255 1.0 6.0 0.00 0.00 0.00 81 101.6
20260830135702 78 240 2.0 5.0 0.00 0.00 0.00 82 101.6
20260830135202 78 227 3.0 6.0 0.00 0.00 0.00 83 101.6
20260830134702 78 198 4.0 6.0 0.00 0.00 0.00 84 101.6
20260830134202 77 246 3.0 6.0 0.00 0.00 0.00 84 101.6
20260830133703 77 252 3.0 5.0 0.00 0.00 0.00 84 101.6
20260830133202 77 257 4.0 6.0 0.00 0.00 0.00 85 101.6
20260830132201 76 222 4.0 6.0 0.00 0.00 0.00 85 101.5
20260830131702 76 258 4.0 6.0 0.00 0.00 0.00 86 101.5
20260830131201 76 190 2.0 5.0 0.00 0.00 0.00 86 101.5
20260830130702 76 220 3.0 4.0 0.00 0.00 0.00 86 101.5
20260830130202 75 213 3.0 4.0 0.00 0.00 0.00 87 101.5
20260830125701 75 234 1.0 5.0 0.00 0.00 0.00 87 101.5
20260830125202 75 200 4.0 5.0 0.00 0.00 0.00 88 101.5
20260830124702 75 238 2.0 5.0 0.00 0.00 0.00 88 101.5
20260830124202 75 233 1.0 4.0 0.00 0.00 0.00 88 101.5
20260830123704 75 219 4.0 4.0 0.00 0.00 0.00 88 101.5
20260830122702 75 233 2.0 4.0 0.00 0.00 0.00 88 101.5
20260830122202 74 208 2.0 5.0 0.00 0.00 0.00 88 101.5
20260830121702 75 202 2.0 4.0 0.00 0.00 0.00 88 101.5
20260830121202 75 227 2.0 4.0 0.00 0.00 0.00 88 101.5
20260830120703 75 217 2.0 3.0 0.00 0.00 0.00 87 101.5
20260830120202 75 265 3.0 5.0 0.00 0.00 0.00 87 101.5
20260830115702 75 209 1.0 4.0 0.00 0.00 0.00 87 101.5
20260830115201 75 189 1.0 4.0 0.00 0.00 0.00 87 101.5
20260830114703 75 214 1.0 5.0 0.00 0.00 0.00 86 101.5
20260830114201 75 197 2.0 4.0 0.00 0.00 0.00 86 101.5
20260830113702 75 259 1.0 3.0 0.00 0.00 0.00 86 101.5
20260830113202 75 212 2.0 3.0 0.00 0.00 0.00 85 101.5
20260830112702 75 275 1.0 4.0 0.00 0.00 0.00 85 101.5
20260830111702 75 212 3.0 4.0 0.00 0.00 0.00 84 101.5
20260830111201 75 215 2.0 4.0 0.00 0.00 0.00 84 101.5
20260830110702 75 223 2.0 4.0 0.00 0.00 0.00 83 101.5
20260830110202 76 213 3.0 4.0 0.00 0.00 0.00 83 101.4
20260830105702 76 211 1.0 4.0 0.00 0.00 0.00 82 101.4
20260830105202 76 216 4.0 5.0 0.00 0.00 0.00 82 101.4
20260830104702 76 259 2.0 4.0 0.00 0.00 0.00 82 101.4
20260830104203 76 227 2.0 4.0 0.00 0.00 0.00 81 101.4
20260830103702 76 201 1.0 6.0 0.00 0.00 0.00 81 101.4
20260830103202 76 220 2.0 4.0 0.00 0.00 0.00 80 101.4
20260830102702 76 203 5.0 6.0 0.00 0.00 0.00 80 101.5
20260830102202 76 199 1.0 6.0 0.00 0.00 0.00 79 101.5
20260830101701 77 221 1.0 4.0 0.00 0.00 0.00 79 101.5
20260830101202 77 250 2.0 4.0 0.00 0.00 0.00 79 101.5
20260830100203 77 231 3.0 3.0 0.00 0.00 0.00 78 101.4
20260830095201 77 227 2.0 4.0 0.00 0.00 0.00 77 101.4
20260830094702 77 238 2.0 4.0 0.00 0.00 0.00 76 101.4
20260830094202 77 197 2.0 5.0 0.00 0.00 0.00 76 101.4
20260830093702 77 247 1.0 2.0 0.00 0.00 0.00 76 101.4
20260830093203 78 284 2.0 4.0 0.00 0.00 0.00 75 101.4
20260830092702 78 251 2.0 3.0 0.00 0.00 0.00 75 101.5
20260830092202 78 174 1.0 4.0 0.00 0.00 0.00 75 101.5
20260830091702 78 187 4.0 4.0 0.00 0.00 0.00 75 101.5
20260830091202 78 232 2.0 4.0 0.00 0.00 0.00 75 101.5
20260830090202 78 174 2.0 6.0 0.00 0.00 0.00 74 101.4
20260830085702 78 247 2.0 3.0 0.00 0.00 0.00 74 101.4
20260830085202 79 196 2.0 4.0 0.00 0.00 0.00 74 101.4
20260830084702 79 238 3.0 4.0 0.00 0.00 0.00 73 101.4
20260830084202 79 325 2.0 4.0 0.00 0.00 0.00 73 101.4
20260830083702 79 231 2.0 4.0 0.00 0.00 0.00 73 101.4
20260830083202 79 188 4.0 4.0 0.00 0.00 0.00 73 101.4
20260830082702 79 226 6.0 8.0 0.00 0.00 0.00 72 101.5